Location: Bakov nad Jizerou
(50.4784°N, 14.9394°E)
Time: 07:00:22
(UTC+00:00)

Cosmos 1725 Rocket - Pass Details

Date: 16 June 2021
Orbit: 962 x 990 km, 82.9° (Epoch: 28 July)

Event Time Altitude Azimuth Distance (km) Brightness Sun altitude
Rises 20:28:22 0° 352° (N) 3,662 8.3 -8.8°
Reaches altitude 10° 20:30:56 10° 356° (N) 2,711 7.4 -9.0°
Maximum altitude 20:37:03 59° 76° (ENE) 1,107 4.2 -9.6°
Enters shadow 20:42:38 12° 154° (SSE) 2,520 5.5 -10.1°
